Regional Weather Roundup
Issued by NWS

Home | Current Version | Previous Version | Text Only | Print | Product List | Glossary On
Versions: 1 2 3 4 5 6 7 8 9 10 11 12 13 14 15 16 17 18 19 20 21 22 23 24 25 26 27 28 29 30 31 32 33 34 35 36 37 38 39 40 41 42 43 44 45 46 47 48 49 50
000
ASUS44 KMEG 241610
RWRTN
TENNESSEE HOURLY STATE WEATHER ROUNDUP
NATIONAL WEATHER SERVICE MEMPHIS TN
1000 AM CST SAT FEB 24 2018

TNZ002-004-019-021-049-052-054-088>092-241700-
WEST TENNESSEE

CITY           SKY/WX    TMP DP  RH WIND       PRES   REMARKS
MEMPHIS INTL   CLOUDY    69  67  93 SW17G24   29.98F
NWS MEMPHIS      N/A     69 N/A N/A MISG        N/A
JACKSON        CLOUDY    69  66  90 S10       30.00F
DYERSBURG      CLOUDY    68  65  90 S8        29.98F
COVINGTON      CLOUDY    68  66  94 S7        29.98F
UNION CITY     CLOUDY    68  64  88 S13       29.96F
BOLIVAR        CLOUDY    68  66  94 S9G15     30.01F
PARIS          CLOUDY    68  64  88 S13G20    29.98F
LEXINGTON      CLOUDY    70  64  83 S14       30.02F
SELMER         PTSUNNY   70  64  83 S8        30.03F
SAVANNAH       CLOUDY    70  66  88 S9G16     30.04F
$$

TNZ008-025-027-028-033-062-065-066-241700-
NORTH MIDDLE TENNESSEE

CITY           SKY/WX    TMP DP  RH WIND       PRES   REMARKS
NASHVILLE      PTSUNNY   72  63  73 SW10G21   30.06F
PORTLAND       CLOUDY    66  64  94 S9        30.04F
CLARKSVILLE    PTSUNNY   67  62  84 SW12      30.02F
SMYRNA         FAIR      69  65  86 SW7       30.07F
COOKEVILLE     CLOUDY    64  63  94 SW10      30.09S
GALLATIN       CLOUDY    70  64  83 SW9G16    30.07F
CROSSVILLE     LGT RAIN  64  59  83 SW9G18    30.13F
$$

TNZ061-075-076-078-094-096-097-241700-
SOUTH MIDDLE TENNESSEE

CITY           SKY/WX    TMP DP  RH WIND       PRES   REMARKS
FAYETTEVILLE   CLOUDY    66  66 100 SW9G15    30.12R
TULLAHOMA      CLOUDY    66  64  94 SW12      30.11R
WINCHESTER     CLOUDY    64  63  94 S9        30.12S
MCMINNVILLE    CLOUDY    64  63  94 SW5G16    30.10S FOG
COLUMBIA       CLOUDY    70  70 100 SW14G20   30.05S
SHELBYVILLE    MOSUNNY   70  64  83 SW15      30.09F
$$

TNZ017-018-042-046-047-241700-
NORTHEAST TENNESSEE

CITY           SKY/WX    TMP DP  RH WIND       PRES   REMARKS
TRI CITIES     PTSUNNY   65  61  87 CALM      30.15F
ELIZABETHTON   PTSUNNY   68  57  68 E3        30.15F
$$

TNZ012-013-036-069-073-074-241700-
CENTRAL EAST TENNESSEE

CITY           SKY/WX    TMP DP  RH WIND       PRES   REMARKS
KNOXVILLE      PTSUNNY   72  59  63 S16G28    30.12S
OAK RIDGE      CLOUDY    67  64  90 VRB3      30.13F
DOWNTOWN KNOXV PTSUNNY   72  61  68 W18G26    30.12F
GATLINBURG     PTSUNNY   77  54  44 SW10G21   30.11F
JACKSBORO      CLOUDY    68  61  77 S6        30.14S
$$

TNZ083-085-099-241700-
SOUTHEAST TENNESSEE

CITY           SKY/WX    TMP DP  RH WIND       PRES   REMARKS
CHATTANOOGA    PTSUNNY   73  59  61 S14G22    30.13F
$$

SKY/WX REPORTED AS FAIR MEANS FEW OR NO CLOUDS BELOW
12 THOUSAND FEET.





USA.gov is the U.S. government's official web portal to all federal, state and local government web resources and services.